• în România
  • Lista ţărilor
  • Pe 7 zile
  • Temperatura apei
  • Hartă satelitară
  • Meteo pe hartă
  • Widget-uri
  • user-avatar
    Intrare

    Meteo pe oră la Parakou

    Astăzi, 18 Iunie, Luni

    Timp Temperatura Precipitaţii Vânt Presiune Umiditate
    00:00 +26°C° 0 mm 2 m/s 729 mmHg 81%
    01:00 +26°C° 0 mm 2 m/s 729 mmHg 83%
    02:00 +26°C° 0 mm 2 m/s 729 mmHg 86%
    03:00 +25°C° 0 mm 2 m/s 729 mmHg 89%
    04:00 +25°C° 0 mm 2 m/s 729 mmHg 90%
    05:00 +25°C° 0 mm 2 m/s 729 mmHg 90%
    06:00 +25°C° 0 mm 2 m/s 729 mmHg 89%
    07:00 +27°C° 0 mm 3 m/s 729 mmHg 80%
    08:00 +29°C° 0 mm 3 m/s 729 mmHg 72%
    09:00 +32°C° 0 mm 4 m/s 729 mmHg 63%
    10:00 +34°C° 0 mm 3 m/s 729 mmHg 55%
    11:00 +36°C° 0 mm 3 m/s 729 mmHg 47%
    12:00 +38°C° 0 mm 3 m/s 728 mmHg 40%
    13:00 +38°C° 0 mm 3 m/s 728 mmHg 40%
    14:00 +37°C° 0 mm 2 m/s 727 mmHg 41%
    15:00 +36°C° 0 mm 1 m/s 726 mmHg 41%
    16:00 +35°C° 0,1 mm 2 m/s 727 mmHg 47%
    17:00 +34°C° 0,1 mm 2 m/s 727 mmHg 53%
    18:00 +31°C° 0,1 mm 2 m/s 727 mmHg 58%
    19:00 +30°C° 1,9 mm 2 m/s 727 mmHg 67%
    20:00 +28°C° 1,9 mm 3 m/s 728 mmHg 76%
    21:00 +27°C° 1,9 mm 4 m/s 728 mmHg 85%
    22:00 +26°C° 0,5 mm 4 m/s 728 mmHg 87%
    23:00 +26°C° 0,5 mm 4 m/s 728 mmHg 89%

    Mâine, 19 Iunie, Marţi

    Timp Temperatura Precipitaţii Vânt Presiune Umiditate
    00:00 +26°C° 0,5 mm 4 m/s 728 mmHg 90%
    01:00 +25°C° 0,6 mm 4 m/s 728 mmHg 91%
    02:00 +25°C° 0,6 mm 5 m/s 728 mmHg 91%
    03:00 +25°C° 0,6 mm 5 m/s 727 mmHg 91%
    04:00 +25°C° 0,4 mm 4 m/s 727 mmHg 92%
    05:00 +25°C° 0,4 mm 4 m/s 727 mmHg 92%
    06:00 +23°C° 0,4 mm 4 m/s 727 mmHg 92%
    07:00 +25°C° 0,2 mm 4 m/s 728 mmHg 91%
    08:00 +25°C° 0,2 mm 4 m/s 728 mmHg 90%
    09:00 +25°C° 0,2 mm 4 m/s 729 mmHg 89%
    10:00 +26°C° 0,1 mm 4 m/s 729 mmHg 83%
    11:00 +27°C° 0,1 mm 4 m/s 729 mmHg 78%
    12:00 +28°C° 0,1 mm 4 m/s 729 mmHg 72%
    13:00 +29°C° 0 mm 4 m/s 728 mmHg 66%
    14:00 +32°C° 0 mm 4 m/s 728 mmHg 60%
    15:00 +33°C° 0 mm 4 m/s 727 mmHg 53%
    16:00 +31°C° 0,1 mm 3 m/s 727 mmHg 57%
    17:00 +30°C° 0,1 mm 2 m/s 727 mmHg 61%
    18:00 +29°C° 0,1 mm 2 m/s 727 mmHg 64%
    19:00 +28°C° 0,2 mm 2 m/s 727 mmHg 70%
    20:00 +27°C° 0,2 mm 3 m/s 728 mmHg 75%
    21:00 +26°C° 0,2 mm 3 m/s 729 mmHg 80%
    22:00 +26°C° 0 mm 3 m/s 729 mmHg 83%
    23:00 +25°C° 0 mm 3 m/s 729 mmHg 85%

    Poimâine, 20 Iunie, Miercuri

    Timp Temperatura Precipitaţii Vânt Presiune Umiditate
    00:00 +25°C° 0 mm 3 m/s 729 mmHg 87%
    01:00 +25°C° 0,3 mm 3 m/s 729 mmHg 89%
    02:00 +25°C° 0,3 mm 3 m/s 728 mmHg 90%
    03:00 +24°C° 0,3 mm 3 m/s 728 mmHg 91%
    04:00 +24°C° 0,1 mm 3 m/s 728 mmHg 91%
    05:00 +24°C° 0,1 mm 3 m/s 728 mmHg 91%
    06:00 +24°C° 0,1 mm 3 m/s 729 mmHg 90%
    07:00 +25°C° 0 mm 4 m/s 729 mmHg 87%
    08:00 +26°C° 0 mm 4 m/s 729 mmHg 84%
    09:00 +26°C° 0 mm 4 m/s 730 mmHg 81%
    10:00 +27°C° 0 mm 4 m/s 729 mmHg 75%
    11:00 +29°C° 0 mm 4 m/s 729 mmHg 69%
    12:00 +30°C° 0 mm 4 m/s 729 mmHg 63%
    13:00 +32°C° 0 mm 4 m/s 728 mmHg 59%
    14:00 +33°C° 0 mm 4 m/s 728 mmHg 56%
    15:00 +34°C° 0 mm 3 m/s 727 mmHg 52%
    16:00 +33°C° 0 mm 3 m/s 727 mmHg 55%
    17:00 +31°C° 0 mm 2 m/s 727 mmHg 58%
    18:00 +30°C° 0 mm 2 m/s 728 mmHg 61%
    19:00 +29°C° 0,4 mm 3 m/s 728 mmHg 67%
    20:00 +28°C° 0,4 mm 3 m/s 729 mmHg 73%
    21:00 +27°C° 0,4 mm 4 m/s 729 mmHg 78%
    22:00 +26°C° 0,5 mm 3 m/s 729 mmHg 82%
    23:00 +25°C° 0,5 mm 3 m/s 730 mmHg 87%

    21 Iunie, Joi

    Timp Temperatura Precipitaţii Vânt Presiune Umiditate
    00:00 +25°C° 0,5 mm 3 m/s 730 mmHg 91%
    01:00 +25°C° 0,2 mm 3 m/s 729 mmHg 92%
    02:00 +24°C° 0,2 mm 3 m/s 729 mmHg 92%
    03:00 +24°C° 0,2 mm 3 m/s 729 mmHg 93%
    04:00 +24°C° 0,1 mm 3 m/s 729 mmHg 93%
    05:00 +24°C° 0,1 mm 3 m/s 729 mmHg 93%
    06:00 +24°C° 0,1 mm 3 m/s 729 mmHg 93%
    07:00 +25°C° 0,2 mm 3 m/s 729 mmHg 88%
    08:00 +26°C° 0,2 mm 3 m/s 729 mmHg 84%
    09:00 +27°C° 0,2 mm 3 m/s 730 mmHg 80%
    10:00 +27°C° 1,5 mm 3 m/s 729 mmHg 82%
    11:00 +26°C° 1,5 mm 2 m/s 729 mmHg 85%
    12:00 +26°C° 1,5 mm 2 m/s 729 mmHg 88%
    13:00 +27°C° 0,5 mm 2 m/s 729 mmHg 82%
    14:00 +28°C° 0,5 mm 3 m/s 728 mmHg 76%
    15:00 +30°C° 0,5 mm 3 m/s 727 mmHg 70%
    16:00 +29°C° 0 mm 2 m/s 728 mmHg 71%
    17:00 +28°C° 0 mm 2 m/s 728 mmHg 73%
    18:00 +28°C° 0 mm 2 m/s 728 mmHg 74%
    19:00 +27°C° 0,2 mm 2 m/s 729 mmHg 79%
    20:00 +26°C° 0,2 mm 2 m/s 729 mmHg 84%
    21:00 +25°C° 0,2 mm 2 m/s 730 mmHg 89%
    22:00 +25°C° 0 mm 2 m/s 729 mmHg 89%
    23:00 +25°C° 0 mm 2 m/s 729 mmHg 90%

    22 Iunie, Vineri

    Timp Temperatura Precipitaţii Vânt Presiune Umiditate
    00:00 +25°C° 0 mm 2 m/s 729 mmHg 91%
    01:00 +24°C° 0 mm 2 m/s 729 mmHg 92%
    02:00 +24°C° 0 mm 2 m/s 728 mmHg 92%
    03:00 +24°C° 0 mm 2 m/s 728 mmHg 93%
    04:00 +24°C° 0 mm 2 m/s 728 mmHg 93%
    05:00 +24°C° 0 mm 2 m/s 729 mmHg 92%
    06:00 +24°C° 0 mm 2 m/s 729 mmHg 92%
    07:00 +24°C° 0,2 mm 2 m/s 729 mmHg 91%
    08:00 +25°C° 0,2 mm 2 m/s 730 mmHg 89%
    09:00 +25°C° 0,2 mm 2 m/s 730 mmHg 87%
    10:00 +27°C° 0,1 mm 2 m/s 730 mmHg 78%
    11:00 +29°C° 0,1 mm 2 m/s 729 mmHg 68%
    12:00 +31°C° 0,1 mm 2 m/s 729 mmHg 58%
    13:00 +31°C° 0,1 mm 2 m/s 728 mmHg 56%
    14:00 +32°C° 0,1 mm 2 m/s 728 mmHg 55%
    15:00 +32°C° 0,1 mm 2 m/s 727 mmHg 53%
    16:00 +30°C° 0,2 mm 3 m/s 727 mmHg 61%
    17:00 +29°C° 0,2 mm 3 m/s 727 mmHg 69%
    18:00 +27°C° 0,2 mm 3 m/s 728 mmHg 77%
    19:00 +26°C° 0,6 mm 3 m/s 728 mmHg 81%
    20:00 +26°C° 0,6 mm 3 m/s 729 mmHg 85%
    21:00 +25°C° 0,6 mm 3 m/s 729 mmHg 90%
    22:00 +25°C° 0,2 mm 3 m/s 729 mmHg 90%
    23:00 +25°C° 0,2 mm 3 m/s 729 mmHg 90%

    23 Iunie, Sâmbătă

    Timp Temperatura Precipitaţii Vânt Presiune Umiditate
    00:00 +24°C° 0,2 mm 3 m/s 729 mmHg 90%
    01:00 +24°C° 0 mm 3 m/s 729 mmHg 90%
    02:00 +24°C° 0 mm 3 m/s 728 mmHg 90%
    03:00 +24°C° 0 mm 3 m/s 728 mmHg 90%
    04:00 +24°C° 0 mm 3 m/s 728 mmHg 90%
    05:00 +24°C° 0 mm 3 m/s 729 mmHg 91%
    06:00 +24°C° 0 mm 2 m/s 729 mmHg 91%
    07:00 +25°C° 0,1 mm 3 m/s 729 mmHg 85%
    08:00 +26°C° 0,1 mm 3 m/s 730 mmHg 79%
    09:00 +28°C° 0,1 mm 3 m/s 730 mmHg 73%
    10:00 +29°C° 0,5 mm 3 m/s 730 mmHg 70%
    11:00 +30°C° 0,5 mm 3 m/s 729 mmHg 67%
    12:00 +31°C° 0,5 mm 3 m/s 729 mmHg 65%
    13:00 +30°C° 1,2 mm 3 m/s 728 mmHg 66%
    14:00 +30°C° 1,2 mm 3 m/s 727 mmHg 67%
    15:00 +30°C° 1,2 mm 3 m/s 727 mmHg 68%
    16:00 +29°C° 1,2 mm 3 m/s 727 mmHg 74%
    17:00 +28°C° 1,2 mm 2 m/s 728 mmHg 80%
    18:00 +26°C° 1,2 mm 2 m/s 728 mmHg 86%
    19:00 +26°C° 1,1 mm 2 m/s 729 mmHg 88%
    20:00 +25°C° 1,1 mm 2 m/s 729 mmHg 91%
    21:00 +25°C° 1,1 mm 1 m/s 730 mmHg 93%
    22:00 +24°C° 0,5 mm 2 m/s 730 mmHg 94%
    23:00 +24°C° 0,5 mm 2 m/s 729 mmHg 94%
    Arată mai mult